Time,TemperatureF,DewpointF,PressureIn,WindDirection,WindDirectionDegrees,WindSpeedMPH,WindSpeedGustMPH,Humidity,HourlyPrecipIn,Conditions,Clouds,dailyrainin,SoftwareType,DateUTC
2013-07-09 00:04:00,54.8,54.8,29.92,ENE,75,0.0,0.0,100,0.00,,,0.00,Wunderground v.1.15,2013-07-09 07:04:00,
2013-07-09 00:09:00,54.8,54.8,29.92,ENE,75,0.0,0.0,100,0.00,,,0.00,Wunderground v.1.15,2013-07-09 07:09:00,
2013-07-09 00:15:00,54.8,54.8,29.92,ENE,75,0.0,0.0,100,0.00,,,0.00,Wunderground v.1.15,2013-07-09 07:15:00,
2013-07-09 00:20:00,54.8,54.8,29.92,ENE,75,0.0,0.0,100,0.00,,,0.00,Wunderground v.1.15,2013-07-09 07:20:00,
2013-07-09 00:25:00,54.7,54.7,29.92,NE,46,0.0,0.0,100,0.00,,,0.00,Wunderground v.1.15,2013-07-09 07:25:00,
2013-07-09 00:30:00,54.7,54.7,29.92,NE,46,0.0,0.0,100,0.00,,,0.00,Wunderground v.1.15,2013-07-09 07:30:00,
2013-07-09 00:36:00,54.7,54.7,29.92,NE,46,0.0,0.0,100,0.00,,,0.00,Wunderground v.1.15,2013-07-09 07:36:00,
2013-07-09 00:41:00,54.7,54.7,29.92,NE,46,0.0,0.0,100,0.00,,,0.00,Wunderground v.1.15,2013-07-09 07:41:00,
2013-07-09 00:46:00,54.5,54.5,29.92,ENE,77,0.0,1.0,100,0.00,,,0.00,Wunderground v.1.15,2013-07-09 07:46:00,
2013-07-09 00:53:00,54.5,54.5,29.92,ENE,77,0.0,0.0,100,0.00,,,0.00,Wunderground v.1.15,2013-07-09 07:53:00,
2013-07-09 00:59:00,54.4,54.4,29.92,ENE,77,0.0,0.0,100,0.00,,,0.00,Wunderground v.1.15,2013-07-09 07:59:00,
2013-07-09 01:05:00,54.4,54.4,29.92,ENE,77,0.0,0.0,100,0.00,,,0.00,Wunderground v.1.15,2013-07-09 08:05:00,
2013-07-09 01:10:00,54.4,54.4,29.92,ENE,77,0.0,0.0,100,0.00,,,0.00,Wunderground v.1.15,2013-07-09 08:10:00,
2013-07-09 01:16:00,54.4,54.4,29.92,ENE,77,0.0,1.0,100,0.00,,,0.00,Wunderground v.1.15,2013-07-09 08:16:00,
2013-07-09 01:21:00,54.4,54.4,29.92,ENE,77,0.0,0.0,100,0.00,,,0.00,Wunderground v.1.15,2013-07-09 08:21:00,
2013-07-09 01:26:00,54.4,54.4,29.92,ENE,77,0.0,0.0,100,0.00,,,0.00,Wunderground v.1.15,2013-07-09 08:26:00,
2013-07-09 01:32:00,54.2,54.2,29.92,ENE,77,0.0,0.0,100,0.00,,,0.00,Wunderground v.1.15,2013-07-09 08:32:00,
2013-07-09 01:37:00,54.2,54.2,29.92,ENE,77,0.0,0.0,100,0.00,,,0.00,Wunderground v.1.15,2013-07-09 08:37:00,
2013-07-09 01:42:00,54.1,54.1,29.92,ENE,77,0.0,0.0,100,0.00,,,0.00,Wunderground v.1.15,2013-07-09 08:42:00,
2013-07-09 01:47:00,54.1,54.1,29.92,ENE,77,0.0,0.0,100,0.00,,,0.00,Wunderground v.1.15,2013-07-09 08:47:00,
2013-07-09 01:53:00,54.1,54.1,29.92,ENE,77,0.0,0.0,100,0.00,,,0.00,Wunderground v.1.15,2013-07-09 08:53:00,
2013-07-09 01:58:00,54.1,54.1,29.92,ENE,77,0.0,0.0,100,0.00,,,0.00,Wunderground v.1.15,2013-07-09 08:58:00,
2013-07-09 02:03:00,54.1,54.1,29.91,ENE,77,0.0,0.0,100,0.00,,,0.00,Wunderground v.1.15,2013-07-09 09:03:00,
2013-07-09 02:08:00,54.1,54.1,29.91,ENE,77,0.0,0.0,100,0.00,,,0.00,Wunderground v.1.15,2013-07-09 09:08:00,
2013-07-09 02:13:00,54.1,54.1,29.91,ENE,77,0.0,0.0,100,0.00,,,0.00,Wunderground v.1.15,2013-07-09 09:13:00,
2013-07-09 02:18:00,53.9,53.9,29.91,ENE,77,0.0,0.0,100,0.00,,,0.00,Wunderground v.1.15,2013-07-09 09:18:00,
2013-07-09 02:23:00,53.9,53.9,29.91,ENE,77,0.0,0.0,100,0.00,,,0.00,Wunderground v.1.15,2013-07-09 09:23:00,
2013-07-09 02:28:00,53.9,53.9,29.91,ENE,77,0.0,0.0,100,0.00,,,0.00,Wunderground v.1.15,2013-07-09 09:28:00,
2013-07-09 02:33:00,53.9,53.9,29.90,ENE,77,0.0,0.0,100,0.00,,,0.00,Wunderground v.1.15,2013-07-09 09:33:00,
2013-07-09 02:38:00,53.9,53.9,29.90,ENE,77,0.0,0.0,100,0.00,,,0.00,Wunderground v.1.15,2013-07-09 09:38:00,
2013-07-09 02:43:00,53.9,53.9,29.90,ENE,77,0.0,2.0,100,0.00,,,0.00,Wunderground v.1.15,2013-07-09 09:43:00,
2013-07-09 02:48:00,53.9,53.9,29.90,ENE,77,0.0,2.0,100,0.00,,,0.00,Wunderground v.1.15,2013-07-09 09:48:00,
2013-07-09 02:53:00,53.9,53.9,29.90,ENE,77,0.0,1.0,100,0.00,,,0.00,Wunderground v.1.15,2013-07-09 09:53:00,
2013-07-09 02:58:00,53.9,53.9,29.90,ENE,77,0.0,1.0,100,0.00,,,0.00,Wunderground v.1.15,2013-07-09 09:58:00,
2013-07-09 03:03:00,53.9,53.9,29.90,ENE,77,0.0,0.0,100,0.00,,,0.00,Wunderground v.1.15,2013-07-09 10:03:00,
2013-07-09 03:08:00,53.9,53.9,29.90,ENE,77,0.0,1.0,100,0.00,,,0.00,Wunderground v.1.15,2013-07-09 10:08:00,
2013-07-09 03:13:00,53.9,53.9,29.90,ENE,77,0.0,0.0,100,0.00,,,0.00,Wunderground v.1.15,2013-07-09 10:13:00,
2013-07-09 03:18:00,53.9,53.9,29.90,ENE,77,0.0,0.0,100,0.00,,,0.00,Wunderground v.1.15,2013-07-09 10:18:00,
2013-07-09 03:23:00,53.9,53.9,29.90,ENE,77,0.0,0.0,100,0.00,,,0.00,Wunderground v.1.15,2013-07-09 10:23:00,
2013-07-09 03:28:00,53.9,53.9,29.90,ENE,77,0.0,0.0,100,0.00,,,0.00,Wunderground v.1.15,2013-07-09 10:28:00,
2013-07-09 03:33:00,53.9,53.9,29.90,ENE,77,0.0,1.0,100,0.00,,,0.00,Wunderground v.1.15,2013-07-09 10:33:00,
2013-07-09 03:38:00,53.8,53.8,29.90,ENE,77,0.0,1.0,100,0.00,,,0.00,Wunderground v.1.15,2013-07-09 10:38:00,
2013-07-09 03:43:00,53.8,53.8,29.90,ENE,77,0.0,0.0,100,0.00,,,0.00,Wunderground v.1.15,2013-07-09 10:43:00,
2013-07-09 03:48:00,53.8,53.8,29.90,ENE,77,0.0,0.0,100,0.00,,,0.00,Wunderground v.1.15,2013-07-09 10:48:00,
2013-07-09 03:53:00,53.8,53.8,29.90,ENE,77,0.0,1.0,100,0.00,,,0.00,Wunderground v.1.15,2013-07-09 10:53:00,
2013-07-09 03:58:00,53.9,53.9,29.90,ENE,77,0.0,1.0,100,0.00,,,0.00,Wunderground v.1.15,2013-07-09 10:58:00,
2013-07-09 04:03:00,53.9,53.9,29.89,ENE,77,0.0,0.0,100,0.00,,,0.00,Wunderground v.1.15,2013-07-09 11:03:00,
2013-07-09 04:08:00,53.9,53.9,29.89,SE,146,0.0,3.0,100,0.00,,,0.00,Wunderground v.1.15,2013-07-09 11:08:00,
2013-07-09 04:13:00,53.8,53.8,29.89,SE,146,0.0,0.0,100,0.00,,,0.00,Wunderground v.1.15,2013-07-09 11:13:00,
2013-07-09 04:18:00,53.8,53.8,29.89,SSE,156,0.0,2.0,100,0.00,,,0.00,Wunderground v.1.15,2013-07-09 11:18:00,
2013-07-09 04:23:00,53.6,53.6,29.89,SSE,156,0.0,0.0,100,0.00,,,0.00,Wunderground v.1.15,2013-07-09 11:23:00,
2013-07-09 04:28:00,53.6,53.6,29.89,SSE,156,0.0,0.0,100,0.00,,,0.00,Wunderground v.1.15,2013-07-09 11:28:00,
2013-07-09 04:33:00,53.5,53.5,29.89,SSE,156,0.0,0.0,100,0.00,,,0.00,Wunderground v.1.15,2013-07-09 11:33:00,
2013-07-09 04:38:00,53.3,53.3,29.89,SSE,156,0.0,0.0,100,0.00,,,0.00,Wunderground v.1.15,2013-07-09 11:38:00,
2013-07-09 04:43:00,53.3,53.3,29.89,SSE,156,0.0,0.0,100,0.00,,,0.00,Wunderground v.1.15,2013-07-09 11:43:00,
2013-07-09 04:48:00,53.5,53.5,29.90,SSE,158,0.0,0.0,100,0.00,,,0.00,Wunderground v.1.15,2013-07-09 11:48:00,
2013-07-09 04:53:00,53.3,53.3,29.90,South,181,0.0,0.0,100,0.00,,,0.00,Wunderground v.1.15,2013-07-09 11:53:00,
2013-07-09 04:59:00,53.3,53.3,29.90,South,181,0.0,0.0,100,0.00,,,0.00,Wunderground v.1.15,2013-07-09 11:59:00,
2013-07-09 05:04:00,53.1,53.1,29.91,South,181,0.0,0.0,100,0.00,,,0.00,Wunderground v.1.15,2013-07-09 12:04:00,
2013-07-09 05:09:00,52.9,52.9,29.91,South,181,0.0,0.0,100,0.00,,,0.00,Wunderground v.1.15,2013-07-09 12:09:00,
2013-07-09 05:14:00,52.8,52.8,29.91,South,181,0.0,0.0,100,0.00,,,0.00,Wunderground v.1.15,2013-07-09 12:14:00,
2013-07-09 05:19:00,52.9,52.9,29.90,South,181,0.0,0.0,100,0.00,,,0.00,Wunderground v.1.15,2013-07-09 12:19:00,
2013-07-09 05:24:00,52.9,52.9,29.90,South,181,0.0,0.0,100,0.00,,,0.00,Wunderground v.1.15,2013-07-09 12:24:00,
2013-07-09 05:29:00,52.9,52.9,29.90,South,181,0.0,0.0,100,0.00,,,0.00,Wunderground v.1.15,2013-07-09 12:29:00,
2013-07-09 05:34:00,52.9,52.9,29.91,South,181,0.0,0.0,100,0.00,,,0.00,Wunderground v.1.15,2013-07-09 12:34:00,
2013-07-09 05:39:00,52.9,52.9,29.91,South,181,0.0,0.0,100,0.00,,,0.00,Wunderground v.1.15,2013-07-09 12:39:00,
2013-07-09 05:44:00,52.8,52.8,29.91,South,181,0.0,0.0,100,0.00,,,0.00,Wunderground v.1.15,2013-07-09 12:44:00,
2013-07-09 05:49:00,52.8,52.8,29.91,South,181,0.0,0.0,100,0.00,,,0.00,Wunderground v.1.15,2013-07-09 12:49:00,
2013-07-09 05:54:00,52.8,52.8,29.91,South,181,0.0,0.0,100,0.00,,,0.00,Wunderground v.1.15,2013-07-09 12:54:00,
2013-07-09 05:59:00,52.8,52.8,29.91,South,181,0.0,0.0,100,0.00,,,0.00,Wunderground v.1.15,2013-07-09 12:59:00,
2013-07-09 06:04:00,52.8,52.8,29.91,South,181,0.0,0.0,100,0.00,,,0.00,Wunderground v.1.15,2013-07-09 13:04:00,
2013-07-09 06:09:00,52.8,52.8,29.91,South,181,0.0,0.0,100,0.00,,,0.00,Wunderground v.1.15,2013-07-09 13:09:00,
2013-07-09 06:14:00,52.6,52.6,29.91,South,181,0.0,0.0,100,0.00,,,0.00,Wunderground v.1.15,2013-07-09 13:14:00,
2013-07-09 06:19:00,52.5,52.5,29.91,South,181,0.0,0.0,100,0.00,,,0.00,Wunderground v.1.15,2013-07-09 13:19:00,
2013-07-09 06:24:00,52.3,52.3,29.91,South,181,0.0,0.0,100,0.00,,,0.00,Wunderground v.1.15,2013-07-09 13:24:00,
2013-07-09 06:29:00,52.2,52.2,29.91,South,181,0.0,0.0,100,0.00,,,0.00,Wunderground v.1.15,2013-07-09 13:29:00,
2013-07-09 06:34:00,52.0,52.0,29.91,South,181,0.0,0.0,100,0.00,,,0.00,Wunderground v.1.15,2013-07-09 13:34:00,
2013-07-09 06:39:00,52.0,52.0,29.91,South,181,0.0,0.0,100,0.00,,,0.00,Wunderground v.1.15,2013-07-09 13:39:00,
2013-07-09 06:44:00,52.0,52.0,29.91,South,181,0.0,0.0,100,0.00,,,0.00,Wunderground v.1.15,2013-07-09 13:44:00,
2013-07-09 06:49:00,52.2,52.2,29.91,South,181,0.0,0.0,100,0.00,,,0.00,Wunderground v.1.15,2013-07-09 13:49:00,
2013-07-09 06:54:00,52.3,52.3,29.91,South,181,0.0,0.0,100,0.00,,,0.00,Wunderground v.1.15,2013-07-09 13:54:00,
2013-07-09 06:59:00,52.3,52.3,29.91,South,181,0.0,0.0,100,0.00,,,0.00,Wunderground v.1.15,2013-07-09 13:59:00,
2013-07-09 07:04:00,52.5,52.5,29.91,West,265,0.0,0.0,100,0.00,,,0.00,Wunderground v.1.15,2013-07-09 14:04:00,
2013-07-09 07:09:00,52.3,52.3,29.91,West,265,0.0,0.0,100,0.00,,,0.00,Wunderground v.1.15,2013-07-09 14:09:00,
2013-07-09 07:14:00,52.5,52.5,29.91,West,265,0.0,0.0,100,0.00,,,0.00,Wunderground v.1.15,2013-07-09 14:14:00,
2013-07-09 07:19:00,52.6,52.6,29.91,West,265,0.0,0.0,100,0.00,,,0.00,Wunderground v.1.15,2013-07-09 14:19:00,
2013-07-09 07:24:00,52.9,52.9,29.91,West,262,0.0,0.0,100,0.00,,,0.00,Wunderground v.1.15,2013-07-09 14:24:00,
2013-07-09 07:29:00,52.9,52.9,29.92,WNW,298,0.0,0.0,100,0.00,,,0.00,Wunderground v.1.15,2013-07-09 14:29:00,
2013-07-09 07:34:00,53.1,53.1,29.92,WNW,302,0.0,0.0,100,0.00,,,0.00,Wunderground v.1.15,2013-07-09 14:34:00,
2013-07-09 07:39:00,53.1,53.1,29.92,NNW,336,0.0,0.0,100,0.00,,,0.00,Wunderground v.1.15,2013-07-09 14:39:00,
2013-07-09 07:44:00,52.9,52.9,29.92,NNE,15,1.0,2.0,100,0.00,,,0.00,Wunderground v.1.15,2013-07-09 14:44:00,
2013-07-09 07:49:00,52.8,52.8,29.92,North,0,0.0,1.0,100,0.00,,,0.00,Wunderground v.1.15,2013-07-09 14:49:00,
2013-07-09 07:54:00,52.9,52.9,29.92,NE,51,2.0,2.0,100,0.00,,,0.00,Wunderground v.1.15,2013-07-09 14:54:00,
2013-07-09 07:59:00,53.2,53.2,29.92,NE,51,0.0,0.0,100,0.00,,,0.00,Wunderground v.1.15,2013-07-09 14:59:00,
2013-07-09 08:04:00,53.3,53.3,29.92,NE,51,0.0,1.0,100,0.00,,,0.00,Wunderground v.1.15,2013-07-09 15:04:00,
2013-07-09 08:09:00,53.5,53.5,29.92,NNE,24,0.0,0.0,100,0.00,,,0.00,Wunderground v.1.15,2013-07-09 15:09:00,
2013-07-09 08:14:00,53.9,53.9,29.93,North,359,2.0,2.0,100,0.00,,,0.00,Wunderground v.1.15,2013-07-09 15:14:00,
2013-07-09 08:19:00,53.9,53.9,29.93,SW,230,0.0,4.0,100,0.00,,,0.00,Wunderground v.1.15,2013-07-09 15:19:00,
2013-07-09 08:24:00,54.2,54.2,29.93,North,1,0.0,6.0,100,0.00,,,0.00,Wunderground v.1.15,2013-07-09 15:24:00,
2013-07-09 08:29:00,54.1,54.1,29.93,East,91,0.0,1.0,100,0.00,,,0.00,Wunderground v.1.15,2013-07-09 15:29:00,
2013-07-09 08:35:00,54.1,54.1,29.93,NNE,14,0.0,3.0,100,0.00,,,0.00,Wunderground v.1.15,2013-07-09 15:35:00,
2013-07-09 08:40:00,54.5,54.5,29.93,ENE,69,1.0,2.0,100,0.00,,,0.00,Wunderground v.1.15,2013-07-09 15:40:00,
2013-07-09 08:45:00,55.0,55.0,29.93,NNE,25,3.0,6.0,100,0.00,,,0.00,Wunderground v.1.15,2013-07-09 15:45:00,
2013-07-09 08:50:00,55.4,55.4,29.93,NNE,24,2.0,6.0,100,0.00,,,0.00,Wunderground v.1.15,2013-07-09 15:50:00,
2013-07-09 08:55:00,55.7,55.7,29.93,ENE,63,0.0,6.0,100,0.00,,,0.00,Wunderground v.1.15,2013-07-09 15:55:00,
2013-07-09 09:00:00,56.2,56.2,29.93,East,83,0.0,2.0,100,0.00,,,0.00,Wunderground v.1.15,2013-07-09 16:00:00,
2013-07-09 09:05:00,56.7,56.4,29.93,NNW,344,0.0,4.0,99,0.00,,,0.00,Wunderground v.1.15,2013-07-09 16:05:00,
2013-07-09 09:10:00,56.7,55.9,29.93,SW,214,2.0,3.0,97,0.00,,,0.00,Wunderground v.1.15,2013-07-09 16:10:00,
2013-07-09 09:15:00,57.2,56.1,29.93,NE,37,1.0,3.0,96,0.00,,,0.00,Wunderground v.1.15,2013-07-09 16:15:00,
2013-07-09 09:20:00,57.2,55.5,29.93,NW,314,1.0,5.0,94,0.00,,,0.00,Wunderground v.1.15,2013-07-09 16:20:00,
2013-07-09 09:26:00,58.1,56.1,29.93,NW,319,2.0,5.0,93,0.00,,,0.00,Wunderground v.1.15,2013-07-09 16:26:00,
2013-07-09 09:30:00,59.2,56.9,29.93,ESE,111,1.0,2.0,92,0.00,,,0.00,Wunderground v.1.15,2013-07-09 16:30:00,
2013-07-09 09:35:00,60.1,56.5,29.93,ESE,103,1.0,5.0,88,0.00,,,0.00,Wunderground v.1.15,2013-07-09 16:35:00,
2013-07-09 09:40:00,61.0,56.8,29.93,North,1,0.0,2.0,86,0.00,,,0.00,Wunderground v.1.15,2013-07-09 16:40:00,
2013-07-09 09:46:00,61.2,56.0,29.93,NNW,342,4.0,8.0,83,0.00,,,0.00,Wunderground v.1.15,2013-07-09 16:46:00,
2013-07-09 09:51:00,61.0,56.1,29.93,SW,228,1.0,3.0,84,0.00,,,0.00,Wunderground v.1.15,2013-07-09 16:51:00,
2013-07-09 09:56:00,60.9,55.7,29.93,NNW,335,3.0,6.0,83,0.00,,,0.00,Wunderground v.1.15,2013-07-09 16:56:00,
2013-07-09 10:01:00,61.2,56.0,29.93,NNE,22,3.0,3.0,83,0.00,,,0.00,Wunderground v.1.15,2013-07-09 17:01:00,
2013-07-09 10:06:00,61.6,56.0,29.93,NNW,342,0.0,6.0,82,0.00,,,0.00,Wunderground v.1.15,2013-07-09 17:06:00,
2013-07-09 10:11:00,62.3,56.4,29.93,SSE,155,2.0,2.0,81,0.00,,,0.00,Wunderground v.1.15,2013-07-09 17:11:00,
2013-07-09 10:16:00,63.2,56.9,29.92,South,191,0.0,4.0,80,0.00,,,0.00,Wunderground v.1.15,2013-07-09 17:16:00,
2013-07-09 10:21:00,64.0,57.0,29.92,SSW,210,1.0,3.0,78,0.00,,,0.00,Wunderground v.1.15,2013-07-09 17:21:00,
2013-07-09 10:26:00,64.5,57.1,29.92,NNE,23,0.0,6.0,77,0.00,,,0.00,Wunderground v.1.15,2013-07-09 17:26:00,
2013-07-09 10:31:00,65.5,57.4,29.93,SSE,163,0.0,2.0,75,0.00,,,0.00,Wunderground v.1.15,2013-07-09 17:31:00,
2013-07-09 10:36:00,65.6,57.5,29.93,South,178,0.0,4.0,75,0.00,,,0.00,Wunderground v.1.15,2013-07-09 17:36:00,
2013-07-09 10:41:00,66.3,57.8,29.93,SSE,164,0.0,1.0,74,0.00,,,0.00,Wunderground v.1.15,2013-07-09 17:41:00,
2013-07-09 10:46:00,66.1,56.8,29.93,North,359,1.0,6.0,72,0.00,,,0.00,Wunderground v.1.15,2013-07-09 17:46:00,
2013-07-09 10:51:00,65.6,56.3,29.93,North,352,1.0,8.0,72,0.00,,,0.00,Wunderground v.1.15,2013-07-09 17:51:00,
2013-07-09 10:56:00,65.2,56.7,29.93,North,0,1.0,8.0,74,0.00,,,0.00,Wunderground v.1.15,2013-07-09 17:56:00,
2013-07-09 11:01:00,65.6,57.1,29.92,North,1,0.0,4.0,74,0.00,,,0.00,Wunderground v.1.15,2013-07-09 18:01:00,
2013-07-09 11:06:00,66.4,57.9,29.92,South,172,2.0,6.0,74,0.00,,,0.00,Wunderground v.1.15,2013-07-09 18:06:00,
2013-07-09 11:11:00,66.9,57.6,29.92,WNW,291,2.0,3.0,72,0.00,,,0.00,Wunderground v.1.15,2013-07-09 18:11:00,
2013-07-09 11:16:00,67.3,58.0,29.92,WNW,282,1.0,6.0,72,0.00,,,0.00,Wunderground v.1.15,2013-07-09 18:16:00,
2013-07-09 11:21:00,66.8,57.5,29.92,West,277,0.0,3.0,72,0.00,,,0.00,Wunderground v.1.15,2013-07-09 18:21:00,
2013-07-09 11:26:00,66.9,57.6,29.92,SSE,160,2.0,3.0,72,0.00,,,0.00,Wunderground v.1.15,2013-07-09 18:26:00,
2013-07-09 11:31:00,66.4,57.5,29.93,South,177,2.0,2.0,73,0.00,,,0.00,Wunderground v.1.15,2013-07-09 18:31:00,
2013-07-09 11:36:00,66.3,57.8,29.93,WSW,239,0.0,3.0,74,0.00,,,0.00,Wunderground v.1.15,2013-07-09 18:36:00,
2013-07-09 11:41:00,66.4,57.1,29.93,ENE,72,1.0,1.0,72,0.00,,,0.00,Wunderground v.1.15,2013-07-09 18:41:00,
2013-07-09 11:46:00,66.0,56.7,29.93,WNW,299,0.0,4.0,72,0.00,,,0.00,Wunderground v.1.15,2013-07-09 18:46:00,
2013-07-09 11:51:00,65.5,56.6,29.93,ESE,119,5.0,5.0,73,0.00,,,0.00,Wunderground v.1.15,2013-07-09 18:51:00,
2013-07-09 11:56:00,63.9,55.8,29.93,NNW,328,4.0,7.0,75,0.00,,,0.00,Wunderground v.1.15,2013-07-09 18:56:00,
2013-07-09 12:01:00,64.0,56.3,29.93,SW,228,1.0,4.0,76,0.00,,,0.00,Wunderground v.1.15,2013-07-09 19:01:00,
2013-07-09 12:06:00,64.0,56.3,29.93,East,91,0.0,6.0,76,0.00,,,0.00,Wunderground v.1.15,2013-07-09 19:06:00,
2013-07-09 12:11:00,64.7,56.6,29.93,North,359,3.0,6.0,75,0.00,,,0.00,Wunderground v.1.15,2013-07-09 19:11:00,
2013-07-09 12:16:00,64.3,56.2,29.93,NE,44,2.0,9.0,75,0.00,,,0.00,Wunderground v.1.15,2013-07-09 19:16:00,
2013-07-09 12:21:00,65.0,56.9,29.93,North,1,1.0,3.0,75,0.00,,,0.00,Wunderground v.1.15,2013-07-09 19:21:00,
2013-07-09 12:26:00,65.8,56.9,29.93,NE,39,1.0,4.0,73,0.00,,,0.00,Wunderground v.1.15,2013-07-09 19:26:00,
2013-07-09 12:31:00,66.1,56.8,29.93,NE,48,0.0,3.0,72,0.00,,,0.00,Wunderground v.1.15,2013-07-09 19:31:00,
2013-07-09 12:37:00,66.8,57.5,29.93,West,278,0.0,3.0,72,0.00,,,0.00,Wunderground v.1.15,2013-07-09 19:37:00,
2013-07-09 12:42:00,66.8,57.5,29.93,WSW,246,0.0,3.0,72,0.00,,,0.00,Wunderground v.1.15,2013-07-09 19:42:00,
2013-07-09 12:47:00,66.0,56.7,29.93,South,185,4.0,7.0,72,0.00,,,0.00,Wunderground v.1.15,2013-07-09 19:47:00,
2013-07-09 12:52:00,66.0,57.1,29.93,WSW,252,0.0,3.0,73,0.00,,,0.00,Wunderground v.1.15,2013-07-09 19:52:00,
2013-07-09 12:57:00,66.4,56.7,29.93,West,259,0.0,5.0,71,0.00,,,0.00,Wunderground v.1.15,2013-07-09 19:57:00,
2013-07-09 13:02:00,66.1,56.8,29.93,North,359,2.0,5.0,72,0.00,,,0.00,Wunderground v.1.15,2013-07-09 20:02:00,
2013-07-09 13:07:00,65.8,56.5,29.93,SSW,206,1.0,6.0,72,0.00,,,0.00,Wunderground v.1.15,2013-07-09 20:07:00,
2013-07-09 13:12:00,64.8,56.3,29.93,NW,322,2.0,5.0,74,0.00,,,0.00,Wunderground v.1.15,2013-07-09 20:12:00,
2013-07-09 13:17:00,65.6,56.7,29.93,South,191,2.0,5.0,73,0.00,,,0.00,Wunderground v.1.15,2013-07-09 20:17:00,
2013-07-09 13:22:00,66.4,57.1,29.93,SW,229,1.0,3.0,72,0.00,,,0.00,Wunderground v.1.15,2013-07-09 20:22:00,
2013-07-09 13:27:00,66.6,56.5,29.93,NNW,338,0.0,9.0,70,0.00,,,0.00,Wunderground v.1.15,2013-07-09 20:27:00,
2013-07-09 13:32:00,67.1,57.4,29.92,East,99,1.0,4.0,71,0.00,,,0.00,Wunderground v.1.15,2013-07-09 20:32:00,
2013-07-09 13:37:00,67.6,57.5,29.92,South,177,0.0,4.0,70,0.00,,,0.00,Wunderground v.1.15,2013-07-09 20:37:00,
2013-07-09 13:42:00,67.9,57.8,29.92,NNE,25,0.0,5.0,70,0.00,,,0.00,Wunderground v.1.15,2013-07-09 20:42:00,
2013-07-09 13:47:00,67.9,57.4,29.92,WSW,244,2.0,5.0,69,0.00,,,0.00,Wunderground v.1.15,2013-07-09 20:47:00,
2013-07-09 13:52:00,68.6,58.4,29.92,WSW,252,2.0,2.0,70,0.00,,,0.00,Wunderground v.1.15,2013-07-09 20:52:00,
2013-07-09 13:57:00,69.8,58.3,29.92,West,261,0.0,4.0,67,0.00,,,0.00,Wunderground v.1.15,2013-07-09 20:57:00,
2013-07-09 14:02:00,70.6,59.1,29.92,ESE,115,0.0,1.0,67,0.00,,,0.00,Wunderground v.1.15,2013-07-09 21:02:00,
2013-07-09 14:07:00,70.6,59.1,29.92,SSE,166,1.0,4.0,67,0.00,,,0.00,Wunderground v.1.15,2013-07-09 21:07:00,
2013-07-09 14:12:00,70.4,58.5,29.92,WSW,243,0.0,3.0,66,0.00,,,0.00,Wunderground v.1.15,2013-07-09 21:12:00,
2013-07-09 14:17:00,70.6,58.3,29.92,South,186,0.0,4.0,65,0.00,,,0.00,Wunderground v.1.15,2013-07-09 21:17:00,
2013-07-09 14:22:00,70.6,58.3,29.92,South,171,1.0,2.0,65,0.00,,,0.00,Wunderground v.1.15,2013-07-09 21:22:00,
2013-07-09 14:27:00,69.1,57.3,29.92,West,269,0.0,9.0,66,0.00,,,0.00,Wunderground v.1.15,2013-07-09 21:27:00,
2013-07-09 14:32:00,68.3,57.7,29.92,SW,225,2.0,4.0,69,0.00,,,0.00,Wunderground v.1.15,2013-07-09 21:32:00,
2013-07-09 14:37:00,67.6,57.5,29.92,SSW,208,1.0,4.0,70,0.00,,,0.00,Wunderground v.1.15,2013-07-09 21:37:00,
2013-07-09 14:42:00,67.1,57.4,29.92,West,264,1.0,6.0,71,0.00,,,0.00,Wunderground v.1.15,2013-07-09 21:42:00,
2013-07-09 14:47:00,66.3,57.0,29.93,SSW,193,1.0,8.0,72,0.00,,,0.00,Wunderground v.1.15,2013-07-09 21:47:00,
2013-07-09 14:52:00,66.1,57.6,29.93,WSW,250,0.0,2.0,74,0.00,,,0.00,Wunderground v.1.15,2013-07-09 21:52:00,
2013-07-09 14:57:00,66.3,57.4,29.93,WSW,254,0.0,5.0,73,0.00,,,0.00,Wunderground v.1.15,2013-07-09 21:57:00,
2013-07-09 15:02:00,66.1,57.6,29.93,ESE,113,2.0,4.0,74,0.00,,,0.00,Wunderground v.1.15,2013-07-09 22:02:00,
2013-07-09 15:07:00,66.1,57.6,29.93,ESE,116,1.0,4.0,74,0.00,,,0.00,Wunderground v.1.15,2013-07-09 22:07:00,
2013-07-09 15:12:00,65.8,57.3,29.93,East,96,1.0,4.0,74,0.00,,,0.00,Wunderground v.1.15,2013-07-09 22:12:00,
2013-07-09 15:18:00,65.5,57.0,29.93,North,357,1.0,12.0,74,0.00,,,0.00,Wunderground v.1.15,2013-07-09 22:18:00,
2013-07-09 15:23:00,65.5,57.4,29.93,North,6,3.0,6.0,75,0.00,,,0.00,Wunderground v.1.15,2013-07-09 22:23:00,
2013-07-09 15:28:00,64.8,57.1,29.93,NNE,18,0.0,6.0,76,0.00,,,0.00,Wunderground v.1.15,2013-07-09 22:28:00,
2013-07-09 15:33:00,64.3,56.2,29.93,NNW,338,3.0,11.0,75,0.00,,,0.00,Wunderground v.1.15,2013-07-09 22:33:00,
2013-07-09 15:38:00,63.9,56.5,29.93,North,350,5.0,11.0,77,0.00,,,0.00,Wunderground v.1.15,2013-07-09 22:38:00,
2013-07-09 15:43:00,63.4,56.8,29.93,WSW,251,2.0,5.0,79,0.00,,,0.00,Wunderground v.1.15,2013-07-09 22:43:00,
2013-07-09 15:48:00,63.4,56.8,29.93,SSW,204,1.0,6.0,79,0.00,,,0.00,Wunderground v.1.15,2013-07-09 22:48:00,
2013-07-09 15:53:00,62.4,55.8,29.93,SSW,196,0.0,9.0,79,0.00,,,0.00,Wunderground v.1.15,2013-07-09 22:53:00,
2013-07-09 15:58:00,62.7,56.4,29.93,SW,232,1.0,9.0,80,0.00,,,0.00,Wunderground v.1.15,2013-07-09 22:58:00,
2013-07-09 16:03:00,63.2,56.9,29.94,West,281,1.0,5.0,80,0.00,,,0.00,Wunderground v.1.15,2013-07-09 23:03:00,
2013-07-09 16:08:00,63.2,56.6,29.94,NNE,13,1.0,5.0,79,0.00,,,0.00,Wunderground v.1.15,2013-07-09 23:08:00,
2013-07-09 16:13:00,63.7,57.1,29.94,North,0,1.0,2.0,79,0.00,,,0.00,Wunderground v.1.15,2013-07-09 23:13:00,
2013-07-09 16:18:00,64.2,57.2,29.93,NNE,20,3.0,5.0,78,0.00,,,0.00,Wunderground v.1.15,2013-07-09 23:18:00,
2013-07-09 16:23:00,64.2,57.5,29.93,North,356,1.0,5.0,79,0.00,,,0.00,Wunderground v.1.15,2013-07-09 23:23:00,
2013-07-09 16:28:00,64.0,57.4,29.93,North,1,0.0,5.0,79,0.00,,,0.00,Wunderground v.1.15,2013-07-09 23:28:00,
2013-07-09 16:33:00,63.7,56.7,29.93,NNW,346,1.0,4.0,78,0.00,,,0.00,Wunderground v.1.15,2013-07-09 23:33:00,
2013-07-09 16:38:00,62.7,56.4,29.93,NE,44,0.0,6.0,80,0.00,,,0.00,Wunderground v.1.15,2013-07-09 23:38:00,
2013-07-09 16:43:00,62.9,56.3,29.93,NE,50,0.0,6.0,79,0.00,,,0.00,Wunderground v.1.15,2013-07-09 23:43:00,
2013-07-09 16:48:00,62.6,56.3,29.93,NE,53,0.0,6.0,80,0.00,,,0.00,Wunderground v.1.15,2013-07-09 23:48:00,
2013-07-09 16:53:00,62.4,56.5,29.93,NNE,15,1.0,6.0,81,0.00,,,0.00,Wunderground v.1.15,2013-07-09 23:53:00,
2013-07-09 16:58:00,62.1,56.5,29.93,NNW,328,1.0,6.0,82,0.00,,,0.00,Wunderground v.1.15,2013-07-09 23:58:00,
2013-07-09 17:03:00,62.6,56.7,29.93,NNW,338,3.0,4.0,81,0.00,,,0.00,Wunderground v.1.15,2013-07-10 00:03:00,
2013-07-09 17:08:00,62.6,56.7,29.93,SE,124,1.0,4.0,81,0.00,,,0.00,Wunderground v.1.15,2013-07-10 00:08:00,
2013-07-09 17:13:00,62.7,56.8,29.93,ESE,110,0.0,1.0,81,0.00,,,0.00,Wunderground v.1.15,2013-07-10 00:13:00,
2013-07-09 17:18:00,62.9,57.0,29.93,NW,312,0.0,3.0,81,0.00,,,0.00,Wunderground v.1.15,2013-07-10 00:18:00,
2013-07-09 17:23:00,62.7,56.4,29.93,West,281,2.0,4.0,80,0.00,,,0.00,Wunderground v.1.15,2013-07-10 00:23:00,
2013-07-09 17:28:00,63.1,57.2,29.93,West,281,0.0,4.0,81,0.00,,,0.00,Wunderground v.1.15,2013-07-10 00:28:00,
2013-07-09 17:33:00,63.2,56.9,29.92,NNW,337,0.0,2.0,80,0.00,,,0.00,Wunderground v.1.15,2013-07-10 00:33:00,
2013-07-09 17:38:00,63.5,57.2,29.92,NNW,338,0.0,2.0,80,0.00,,,0.00,Wunderground v.1.15,2013-07-10 00:38:00,
2013-07-09 17:43:00,63.9,57.3,29.92,SSE,158,0.0,3.0,79,0.00,,,0.00,Wunderground v.1.15,2013-07-10 00:43:00,
2013-07-09 17:48:00,63.7,57.1,29.91,NW,321,2.0,5.0,79,0.00,,,0.00,Wunderground v.1.15,2013-07-10 00:48:00,
2013-07-09 17:53:00,63.2,56.9,29.91,NNW,345,0.0,5.0,80,0.00,,,0.00,Wunderground v.1.15,2013-07-10 00:53:00,
2013-07-09 17:58:00,62.6,56.3,29.91,WNW,295,5.0,5.0,80,0.00,,,0.00,Wunderground v.1.15,2013-07-10 00:58:00,
2013-07-09 18:03:00,62.0,56.4,29.90,WNW,297,0.0,3.0,82,0.00,,,0.00,Wunderground v.1.15,2013-07-10 01:03:00,
2013-07-09 18:08:00,61.6,56.4,29.90,West,281,0.0,5.0,83,0.00,,,0.00,Wunderground v.1.15,2013-07-10 01:08:00,
2013-07-09 18:13:00,61.6,56.4,29.90,West,278,0.0,3.0,83,0.00,,,0.00,Wunderground v.1.15,2013-07-10 01:13:00,
2013-07-09 18:18:00,61.6,56.4,29.90,West,276,2.0,3.0,83,0.00,,,0.00,Wunderground v.1.15,2013-07-10 01:18:00,
2013-07-09 18:23:00,61.8,56.6,29.90,NNW,329,2.0,4.0,83,0.00,,,0.00,Wunderground v.1.15,2013-07-10 01:23:00,
2013-07-09 18:28:00,61.6,56.4,29.90,West,262,1.0,4.0,83,0.00,,,0.00,Wunderground v.1.15,2013-07-10 01:28:00,
2013-07-09 18:33:00,61.8,56.6,29.89,WSW,250,1.0,2.0,83,0.00,,,0.00,Wunderground v.1.15,2013-07-10 01:33:00,
2013-07-09 18:38:00,62.1,56.5,29.89,WSW,251,0.0,2.0,82,0.00,,,0.00,Wunderground v.1.15,2013-07-10 01:38:00,
2013-07-09 18:43:00,62.1,56.5,29.89,West,263,1.0,3.0,82,0.00,,,0.00,Wunderground v.1.15,2013-07-10 01:43:00,
2013-07-09 18:48:00,61.5,56.0,29.89,West,263,0.0,3.0,82,0.00,,,0.00,Wunderground v.1.15,2013-07-10 01:48:00,
2013-07-09 18:53:00,60.9,56.0,29.89,West,271,0.0,2.0,84,0.00,,,0.00,Wunderground v.1.15,2013-07-10 01:53:00,
2013-07-09 18:58:00,60.2,55.7,29.89,West,269,5.0,5.0,85,0.00,,,0.00,Wunderground v.1.15,2013-07-10 01:58:00,
2013-07-09 19:03:00,58.9,54.7,29.90,WNW,291,2.0,5.0,86,0.00,,,0.00,Wunderground v.1.15,2013-07-10 02:03:00,
2013-07-09 19:08:00,58.0,54.5,29.90,WNW,293,2.0,5.0,88,0.00,,,0.00,Wunderground v.1.15,2013-07-10 02:08:00,
2013-07-09 19:13:00,57.5,54.6,29.90,WNW,291,0.0,1.0,90,0.00,,,0.00,Wunderground v.1.15,2013-07-10 02:13:00,
2013-07-09 19:18:00,57.2,54.6,29.90,ESE,113,1.0,4.0,91,0.00,,,0.00,Wunderground v.1.15,2013-07-10 02:18:00,
2013-07-09 19:23:00,57.0,54.7,29.90,East,84,0.0,2.0,92,0.00,,,0.00,Wunderground v.1.15,2013-07-10 02:23:00,
2013-07-09 19:28:00,56.9,54.9,29.90,East,83,0.0,2.0,93,0.00,,,0.00,Wunderground v.1.15,2013-07-10 02:28:00,
2013-07-09 19:33:00,56.7,54.7,29.90,ENE,76,0.0,1.0,93,0.00,,,0.00,Wunderground v.1.15,2013-07-10 02:33:00,
2013-07-09 19:38:00,56.7,54.7,29.90,ENE,76,0.0,2.0,93,0.00,,,0.00,Wunderground v.1.15,2013-07-10 02:38:00,
2013-07-09 19:43:00,56.6,54.6,29.90,NNE,33,0.0,3.0,93,0.00,,,0.00,Wunderground v.1.15,2013-07-10 02:43:00,
2013-07-09 19:49:00,56.3,54.6,29.91,South,170,0.0,3.0,94,0.00,,,0.00,Wunderground v.1.15,2013-07-10 02:49:00,
2013-07-09 19:54:00,56.0,54.6,29.91,SSE,165,0.0,0.0,95,0.00,,,0.00,Wunderground v.1.15,2013-07-10 02:54:00,
2013-07-09 19:59:00,55.9,54.5,29.91,SSE,165,0.0,1.0,95,0.00,,,0.00,Wunderground v.1.15,2013-07-10 02:59:00,
2013-07-09 20:04:00,55.9,54.5,29.91,SSE,165,0.0,0.0,95,0.00,,,0.00,Wunderground v.1.15,2013-07-10 03:04:00,
2013-07-09 20:09:00,55.7,54.6,29.91,SSE,165,0.0,1.0,96,0.00,,,0.00,Wunderground v.1.15,2013-07-10 03:09:00,
2013-07-09 20:14:00,55.6,54.5,29.91,SW,220,0.0,3.0,96,0.00,,,0.00,Wunderground v.1.15,2013-07-10 03:14:00,
2013-07-09 20:19:00,55.3,54.2,29.91,SW,220,1.0,3.0,96,0.00,,,0.00,Wunderground v.1.15,2013-07-10 03:19:00,
2013-07-09 20:24:00,55.1,54.0,29.91,SW,220,0.0,0.0,96,0.00,,,0.00,Wunderground v.1.15,2013-07-10 03:24:00,
2013-07-09 20:29:00,55.1,54.0,29.91,SW,220,0.0,0.0,96,0.00,,,0.00,Wunderground v.1.15,2013-07-10 03:29:00,
2013-07-09 20:34:00,55.0,53.9,29.92,SW,220,0.0,0.0,96,0.00,,,0.00,Wunderground v.1.15,2013-07-10 03:34:00,
2013-07-09 20:39:00,54.8,54.0,29.92,SW,220,0.0,0.0,97,0.00,,,0.00,Wunderground v.1.15,2013-07-10 03:39:00,
2013-07-09 20:44:00,54.7,53.9,29.92,SW,220,0.0,0.0,97,0.00,,,0.00,Wunderground v.1.15,2013-07-10 03:44:00,
2013-07-09 20:49:00,54.5,53.7,29.92,SW,220,0.0,0.0,97,0.00,,,0.00,Wunderground v.1.15,2013-07-10 03:49:00,
2013-07-09 20:54:00,54.5,53.7,29.92,SW,220,0.0,1.0,97,0.00,,,0.00,Wunderground v.1.15,2013-07-10 03:54:00,
2013-07-09 20:59:00,54.5,53.7,29.92,SW,220,0.0,1.0,97,0.00,,,0.00,Wunderground v.1.15,2013-07-10 03:59:00,
2013-07-09 21:01:00,54.5,53.7,29.92,SW,220,0.0,0.0,97,0.00,,,0.00,Wunderground v.1.15,2013-07-10 04:01:00,
2013-07-09 21:06:00,54.5,53.9,29.92,SW,220,0.0,0.0,98,0.00,,,0.00,Wunderground v.1.15,2013-07-10 04:06:00,
2013-07-09 21:11:00,54.5,53.9,29.92,SW,220,0.0,0.0,98,0.00,,,0.00,Wunderground v.1.15,2013-07-10 04:11:00,
2013-07-09 21:16:00,54.5,53.9,29.93,SW,220,0.0,2.0,98,0.00,,,0.00,Wunderground v.1.15,2013-07-10 04:16:00,
2013-07-09 21:21:00,54.5,54.2,29.93,SW,220,1.0,1.0,99,0.00,,,0.00,Wunderground v.1.15,2013-07-10 04:21:00,
2013-07-09 21:26:00,54.5,54.2,29.93,SSW,213,0.0,1.0,99,0.00,,,0.00,Wunderground v.1.15,2013-07-10 04:26:00,
2013-07-09 21:31:00,54.5,54.2,29.93,SSW,213,0.0,1.0,99,0.00,,,0.00,Wunderground v.1.15,2013-07-10 04:31:00,
2013-07-09 21:36:00,54.4,54.4,29.93,SSW,213,0.0,1.0,100,0.00,,,0.00,Wunderground v.1.15,2013-07-10 04:36:00,
2013-07-09 21:41:00,54.4,54.4,29.93,SSE,158,0.0,0.0,100,0.00,,,0.00,Wunderground v.1.15,2013-07-10 04:41:00,
2013-07-09 21:46:00,54.4,54.4,29.94,SSE,157,0.0,1.0,100,0.00,,,0.00,Wunderground v.1.15,2013-07-10 04:46:00,
2013-07-09 21:51:00,54.2,54.2,29.94,SSE,157,0.0,0.0,100,0.00,,,0.00,Wunderground v.1.15,2013-07-10 04:51:00,
2013-07-09 21:56:00,54.2,54.2,29.94,SSE,157,0.0,1.0,100,0.00,,,0.00,Wunderground v.1.15,2013-07-10 04:56:00,
2013-07-09 22:01:00,54.4,54.4,29.94,SSE,157,0.0,0.0,100,0.00,,,0.00,Wunderground v.1.15,2013-07-10 05:01:00,
2013-07-09 22:06:00,54.4,54.4,29.94,SSE,157,0.0,0.0,100,0.00,,,0.00,Wunderground v.1.15,2013-07-10 05:06:00,
2013-07-09 22:11:00,54.4,54.4,29.94,SSE,157,0.0,0.0,100,0.00,,,0.00,Wunderground v.1.15,2013-07-10 05:11:00,
2013-07-09 22:16:00,54.5,54.5,29.94,SSE,157,0.0,0.0,100,0.00,,,0.00,Wunderground v.1.15,2013-07-10 05:16:00,
2013-07-09 22:21:00,54.5,54.5,29.94,SSE,157,0.0,0.0,100,0.00,,,0.00,Wunderground v.1.15,2013-07-10 05:21:00,
2013-07-09 22:26:00,54.5,54.5,29.94,SSE,157,0.0,0.0,100,0.00,,,0.00,Wunderground v.1.15,2013-07-10 05:26:00,
2013-07-09 22:31:00,54.7,54.7,29.94,SSE,157,0.0,0.0,100,0.00,,,0.00,Wunderground v.1.15,2013-07-10 05:31:00,
2013-07-09 22:36:00,54.7,54.7,29.94,SSE,157,0.0,2.0,100,0.00,,,0.00,Wunderground v.1.15,2013-07-10 05:36:00,
2013-07-09 22:41:00,54.4,54.4,29.94,SSE,157,0.0,1.0,100,0.00,,,0.00,Wunderground v.1.15,2013-07-10 05:41:00,
2013-07-09 22:46:00,54.4,54.4,29.94,SSE,157,0.0,1.0,100,0.00,,,0.00,Wunderground v.1.15,2013-07-10 05:46:00,
2013-07-09 22:51:00,54.4,54.4,29.94,SSE,157,0.0,0.0,100,0.00,,,0.00,Wunderground v.1.15,2013-07-10 05:51:00,
2013-07-09 22:56:00,54.4,54.4,29.94,SSE,157,0.0,0.0,100,0.00,,,0.00,Wunderground v.1.15,2013-07-10 05:56:00,
2013-07-09 23:01:00,54.4,54.4,29.93,SSE,157,0.0,0.0,100,0.00,,,0.00,Wunderground v.1.15,2013-07-10 06:01:00,
2013-07-09 23:06:00,54.4,54.4,29.93,SSE,157,0.0,0.0,100,0.00,,,0.00,Wunderground v.1.15,2013-07-10 06:06:00,
2013-07-09 23:11:00,54.4,54.4,29.93,SSE,157,0.0,0.0,100,0.00,,,0.00,Wunderground v.1.15,2013-07-10 06:11:00,
2013-07-09 23:16:00,54.2,54.2,29.93,SSE,157,0.0,1.0,100,0.00,,,0.00,Wunderground v.1.15,2013-07-10 06:16:00,
2013-07-09 23:21:00,54.2,54.2,29.93,SSE,157,0.0,0.0,100,0.00,,,0.00,Wunderground v.1.15,2013-07-10 06:21:00,
2013-07-09 23:26:00,54.2,54.2,29.93,SSE,157,0.0,0.0,100,0.00,,,0.00,Wunderground v.1.15,2013-07-10 06:26:00,
2013-07-09 23:31:00,54.4,54.4,29.93,SSE,157,0.0,0.0,100,0.00,,,0.00,Wunderground v.1.15,2013-07-10 06:31:00,
2013-07-09 23:36:00,54.4,54.4,29.93,SSE,157,0.0,0.0,100,0.00,,,0.00,Wunderground v.1.15,2013-07-10 06:36:00,
2013-07-09 23:41:00,54.4,54.4,29.93,SSE,157,0.0,0.0,100,0.00,,,0.00,Wunderground v.1.15,2013-07-10 06:41:00,
2013-07-09 23:46:00,54.2,54.2,29.93,SSE,157,2.0,2.0,100,0.00,,,0.00,Wunderground v.1.15,2013-07-10 06:46:00,
2013-07-09 23:51:00,54.2,54.2,29.93,SSE,157,0.0,0.0,100,0.00,,,0.00,Wunderground v.1.15,2013-07-10 06:51:00,
2013-07-09 23:56:00,54.1,54.1,29.93,SSE,157,0.0,0.0,100,0.00,,,0.00,Wunderground v.1.15,2013-07-10 06:56:00,